Location: Byszew
(52.1813°N, 19.2693°E)
Time: 19:46:12
(UTC+00:00)

CAS-4B - Pass Details

Date: 02 July 2022
Orbit: 522 x 536 km, 43.0° (Epoch: 08 August)

Event Time Altitude Azimuth Distance (km) Brightness Sun altitude
Exits shadow 00:58:53 12° 190° (S) 1,661 ? -9.4°
Maximum altitude 01:00:46 15° 160° (SSE) 1,465 ? -9.3°
Drops below altitude 10° 01:03:06 10° 124° (SE) 1,762 ? -9.1°
Sets 01:06:06 0° 101° (ESE) 2,656 ? -8.9°
